Previsão horária em Abakan

Hoje, 24 Janeiro, Domingo

Tempo Temperatura Precipitação Vento Pressão Humidade
00:00 -17°C° 0 mm 2 m/s 750 mmHg 80%
01:00 -17°C° 0 mm 2 m/s 750 mmHg 81%
02:00 -17°C° 0 mm 2 m/s 750 mmHg 82%
03:00 -18°C° 0 mm 2 m/s 750 mmHg 82%
04:00 -17°C° 0 mm 1 m/s 749 mmHg 85%
05:00 -17°C° 0 mm 1 m/s 749 mmHg 85%
06:00 -17°C° 0 mm 1 m/s 749 mmHg 86%
07:00 -17°C° 0 mm 1 m/s 749 mmHg 86%
08:00 -16°C° 0 mm 1 m/s 750 mmHg 87%
09:00 -16°C° 0 mm 0 m/s 750 mmHg 87%
10:00 -15°C° 0 mm 1 m/s 749 mmHg 85%
11:00 -14°C° 0 mm 1 m/s 749 mmHg 83%
12:00 -13°C° 0 mm 1 m/s 749 mmHg 81%
13:00 -13°C° 0 mm 1 m/s 749 mmHg 83%
14:00 -14°C° 0 mm 1 m/s 748 mmHg 86%
15:00 -14°C° 0 mm 1 m/s 748 mmHg 88%
16:00 -14°C° 0 mm 0 m/s 748 mmHg 88%
17:00 -15°C° 0 mm 0 m/s 748 mmHg 88%
18:00 -16°C° 0 mm 0 m/s 749 mmHg 88%
19:00 -16°C° 0 mm 0 m/s 749 mmHg 88%
20:00 -16°C° 0 mm 0 m/s 749 mmHg 88%
21:00 -16°C° 0 mm 0 m/s 749 mmHg 88%
22:00 -16°C° 0 mm 0 m/s 749 mmHg 87%
23:00 -16°C° 0 mm 1 m/s 749 mmHg 87%

Amanhã, 25 Janeiro, Segunda-feira

Tempo Temperatura Precipitação Vento Pressão Humidade
00:00 -16°C° 0 mm 1 m/s 749 mmHg 86%
01:00 -16°C° 0 mm 1 m/s 749 mmHg 85%
02:00 -18°C° 0 mm 2 m/s 750 mmHg 83%
03:00 -17°C° 0 mm 2 m/s 750 mmHg 82%
04:00 -18°C° 0 mm 2 m/s 751 mmHg 82%
05:00 -19°C° 0 mm 2 m/s 751 mmHg 82%
06:00 -20°C° 0 mm 2 m/s 752 mmHg 83%
07:00 -20°C° 0 mm 2 m/s 752 mmHg 86%
08:00 -21°C° 0 mm 2 m/s 753 mmHg 89%
09:00 -23°C° 0 mm 2 m/s 754 mmHg 93%
10:00 -21°C° 0.1 mm 2 m/s 754 mmHg 91%
11:00 -21°C° 0.1 mm 2 m/s 754 mmHg 90%
12:00 -21°C° 0.1 mm 2 m/s 754 mmHg 89%
13:00 -21°C° 0 mm 2 m/s 754 mmHg 90%
14:00 -23°C° 0 mm 2 m/s 754 mmHg 91%
15:00 -20°C° 0 mm 1 m/s 754 mmHg 91%
16:00 -21°C° 0 mm 1 m/s 755 mmHg 92%
17:00 -22°C° 0 mm 1 m/s 755 mmHg 93%
18:00 -23°C° 0 mm 1 m/s 755 mmHg 94%
19:00 -24°C° 0 mm 1 m/s 755 mmHg 94%
20:00 -25°C° 0 mm 1 m/s 756 mmHg 95%
21:00 -26°C° 0 mm 0 m/s 756 mmHg 96%
22:00 -27°C° 0 mm 0 m/s 755 mmHg 96%
23:00 -27°C° 0 mm 0 m/s 755 mmHg 96%

Depois de amanhã, 26 Janeiro, Terça-feira

Tempo Temperatura Precipitação Vento Pressão Humidade
00:00 -29°C° 0 mm 1 m/s 755 mmHg 96%
01:00 -30°C° 0 mm 1 m/s 755 mmHg 96%
02:00 -30°C° 0 mm 1 m/s 755 mmHg 96%
03:00 -31°C° 0 mm 1 m/s 755 mmHg 96%
04:00 -32°C° 0 mm 1 m/s 755 mmHg 97%
05:00 -32°C° 0 mm 1 m/s 755 mmHg 97%
06:00 -33°C° 0 mm 1 m/s 755 mmHg 98%
07:00 -33°C° 0 mm 1 m/s 755 mmHg 97%
08:00 -33°C° 0 mm 1 m/s 755 mmHg 97%
09:00 -33°C° 0 mm 1 m/s 755 mmHg 97%
10:00 -31°C° 0 mm 1 m/s 755 mmHg 95%
11:00 -30°C° 0 mm 1 m/s 755 mmHg 93%
12:00 -29°C° 0 mm 1 m/s 754 mmHg 90%
13:00 -29°C° 0 mm 1 m/s 754 mmHg 91%
14:00 -29°C° 0 mm 1 m/s 754 mmHg 92%
15:00 -29°C° 0 mm 1 m/s 754 mmHg 93%
16:00 -31°C° 0 mm 1 m/s 755 mmHg 93%
17:00 -32°C° 0 mm 1 m/s 755 mmHg 94%
18:00 -34°C° 0 mm 1 m/s 755 mmHg 95%
19:00 -34°C° 0 mm 1 m/s 756 mmHg 95%
20:00 -35°C° 0 mm 1 m/s 756 mmHg 95%
21:00 -35°C° 0 mm 1 m/s 756 mmHg 94%
22:00 -35°C° 0 mm 1 m/s 756 mmHg 95%
23:00 -36°C° 0 mm 1 m/s 757 mmHg 95%

27 Janeiro, Quarta-feira

Tempo Temperatura Precipitação Vento Pressão Humidade
00:00 -35°C° 0 mm 0 m/s 757 mmHg 95%
01:00 -35°C° 0 mm 0 m/s 757 mmHg 95%
02:00 -35°C° 0 mm 0 m/s 757 mmHg 94%
03:00 -35°C° 0 mm 0 m/s 758 mmHg 94%
04:00 -35°C° 0 mm 0 m/s 758 mmHg 94%
05:00 -36°C° 0 mm 0 m/s 759 mmHg 94%
06:00 -36°C° 0 mm 0 m/s 759 mmHg 93%
07:00 -35°C° 0 mm 0 m/s 760 mmHg 92%
08:00 -35°C° 0 mm 0 m/s 760 mmHg 91%
09:00 -34°C° 0 mm 0 m/s 761 mmHg 90%
10:00 -33°C° 0 mm 0 m/s 760 mmHg 89%
11:00 -31°C° 0 mm 0 m/s 760 mmHg 88%
12:00 -30°C° 0 mm 0 m/s 760 mmHg 86%
13:00 -29°C° 0 mm 0 m/s 760 mmHg 88%
14:00 -29°C° 0 mm 0 m/s 760 mmHg 90%
15:00 -29°C° 0 mm 0 m/s 760 mmHg 91%
16:00 -31°C° 0 mm 0 m/s 761 mmHg 93%
17:00 -32°C° 0 mm 0 m/s 761 mmHg 95%
18:00 -34°C° 0 mm 0 m/s 761 mmHg 97%
19:00 -34°C° 0 mm 0 m/s 761 mmHg 97%
20:00 -34°C° 0 mm 0 m/s 761 mmHg 98%
21:00 -34°C° 0 mm 0 m/s 761 mmHg 98%
22:00 -34°C° 0 mm 0 m/s 760 mmHg 99%
23:00 -34°C° 0 mm 0 m/s 760 mmHg 99%

28 Janeiro, Quinta-feira

Tempo Temperatura Precipitação Vento Pressão Humidade
00:00 -35°C° 0 mm 0 m/s 760 mmHg 99%
01:00 -34°C° 0 mm 0 m/s 759 mmHg 99%
02:00 -34°C° 0 mm 0 m/s 759 mmHg 99%
03:00 -34°C° 0 mm 0 m/s 758 mmHg 99%
04:00 -33°C° 0 mm 0 m/s 758 mmHg 97%
05:00 -32°C° 0 mm 0 m/s 757 mmHg 96%
06:00 -31°C° 0 mm 0 m/s 757 mmHg 95%
07:00 -30°C° 0 mm 0 m/s 756 mmHg 93%
08:00 -31°C° 0 mm 1 m/s 756 mmHg 92%
09:00 -30°C° 0 mm 1 m/s 756 mmHg 90%
10:00 -28°C° 0.1 mm 1 m/s 755 mmHg 89%
11:00 -27°C° 0.1 mm 1 m/s 754 mmHg 89%
12:00 -27°C° 0.1 mm 2 m/s 754 mmHg 88%
13:00 -26°C° 0.2 mm 2 m/s 753 mmHg 89%
14:00 -22°C° 0.2 mm 1 m/s 753 mmHg 91%
15:00 -20°C° 0.2 mm 1 m/s 753 mmHg 92%
16:00 -20°C° 0 mm 1 m/s 753 mmHg 93%
17:00 -19°C° 0 mm 1 m/s 753 mmHg 94%
18:00 -18°C° 0 mm 1 m/s 753 mmHg 95%
19:00 -17°C° 0 mm 1 m/s 753 mmHg 94%
20:00 -16°C° 0 mm 1 m/s 753 mmHg 94%
21:00 -14°C° 0 mm 1 m/s 753 mmHg 93%
22:00 -15°C° 0 mm 2 m/s 753 mmHg 92%
23:00 -14°C° 0 mm 2 m/s 753 mmHg 90%

29 Janeiro, Sexta-feira

Tempo Temperatura Precipitação Vento Pressão Humidade
00:00 -13°C° 0 mm 2 m/s 752 mmHg 89%
Mostrar mais